Terminal Aerodrome Forecast
Issued by NWS Pueblo, CO

Home | Current Version | Previous Version | Text Only | Print | Product List | Glossary On
Versions: 1 2 3 4 5 6 7 8 9 10 11 12 13 14 15 16 17 18 19 20 21 22 23 24 25 26 27 28 29 30 31 32 33 34 35 36 37 38 39 40 41 42
085
FTUS45 KPUB 261724
TAFCOS
TAF
KCOS 261724Z 2618/2718 17013G22KT P6SM SCT110 SCT200
     FM262100 18020G30KT P6SM VCTS SCT090CB BKN150
     FM270200 18011KT P6SM SCT090 BKN140
     FM270600 35010KT P6SM FEW200
     FM271100 35015KT P6SM BKN020=

USA.gov is the U.S. government's official web portal to all federal, state and local government web resources and services.